Regional Weather Roundup
Issued by NWS Sioux Falls, SD

Home | Current Version | Previous Version | Text Only | Print | Product List | Glossary Off
Versions: 1 2 3 4 5 6 7 8 9 10 11 12 13 14 15 16 17 18 19 20 21 22 23 24 25 26 27 28 29 30 31 32 33 34 35 36 37 38 39 40 41 42 43 44 45 46 47 48 49 50

000
ASUS43 KFSD 182202
RWRFSD

WEATHER ROUNDUP FOR SE SOUTH DAKOTA/SW MINNESOTA/NW IOWA
NATIONAL WEATHER SERVICE SIOUX FALLS SD
400 PM CST THU DEC 18 2014

NOTE: "FAIR" INDICATES FEW OR NO CLOUDS BELOW 12,000 FEET WITH NO
SIGNIFICANT WEATHER AND OR OBSTRUCTIONS TO VISIBILITY.


SDZ038>040-050-052>070-182300-
SOUTHEAST SOUTH DAKOTA

CITY           SKY/WX    TMP DP  RH WIND       PRES   REMARKS
CHAMBERLAIN    NOT AVBL
HURON          CLOUDY    26  21  81 S9        30.14S WCI  17
MADISON        CLOUDY    25  25 100 S8        30.14S WCI  16
MITCHELL       CLOUDY    28  23  81 S9        30.16S WCI  19
SIOUX FALLS    CLOUDY    26  22  84 S6        30.17S WCI  19
WINNER         CLOUDY    31  24  75 SW5       30.07S WCI  26
YANKTON        MOCLDY    28  21  74 S5        30.19R WCI  23
$$

MNZ071-072-080-081-089-090-097-098-182300-
SOUTHWEST MINNESOTA

CITY           SKY/WX    TMP DP  RH WIND       PRES   REMARKS
FAIRMONT       CLOUDY    23  16  74 SE5       30.22S WCI  17
JACKSON        CLOUDY    27  19  74 SE3       30.20S
LUVERNE        CLOUDY    28  23  80 S5        30.18  HAZE    WCI  23
MARSHALL       CLOUDY    23  18  80 SE6       30.20S WCI  16
MONTEVIDEO     CLOUDY    19  18  93 S6        30.23S WCI  11
PIPESTONE      MOCLDY    25  21  86 S3        30.15S
REDWOOD FALLS  CLOUDY    21  15  78 SE7       30.23R WCI  12
TRACY          CLOUDY    25  21  86 SE3       30.20R
WINDOM         CLOUDY    23  19  86 CALM      30.20S
WORTHINGTON    CLOUDY    25  21  86 S5        30.18S WCI  19
$$

IAZ001>003-012>014-020>022-031-032-NEZ013-014-SDZ071-182300-
NORTHWEST IOWA

CITY           SKY/WX    TMP DP  RH WIND       PRES   REMARKS
CHEROKEE       CLOUDY    28  24  82 CALM      30.20S
DENISON        CLOUDY    30  25  80 S3        30.19R
ESTHERVILLE    CLOUDY    23  17  78 S5        30.21S WCI  17
SIOUX CITY     CLOUDY    31  23  72 SE6       30.20R WCI  25
SPENCER        CLOUDY    27  20  75 S5        30.20S WCI  22
$$

ABBREVIATIONS USED IN REMARKS
   TC - TEMPERATURE IN CELSIUS
  WCI - WIND CHILL INDEX
   HX - HEAT INDEX
  VSB - VISIBILITY



USA.gov is the U.S. government's official web portal to all federal, state and local government web resources and services.